Change the Weather History Date:

Saturday, October 22, 2011

  Actual Average (KBIS) Record (KBIS)
Temperature  
Mean Temperature 49 °F 42 °F  
Max Temperature 66 °F 55 °F 81 °F (1963)
Min Temperature 32 °F 30 °F 8 °F (1936)
Degree Days  
Heating Degree Days 16 23  
Month to date heating degree days 398  
Since 1 July heating degree days 684  
Cooling Degree Days 0 0  
Month to date cooling degree days 0  
Year to date cooling degree days 519  
Moisture  
Dew Point 39 °F    
Average Humidity 74    
Maximum Humidity 100    
Minimum Humidity 34    
Precipitation  
Precipitation 0.00 in 0.04 in 0.43 in (1957)
Month to date precipitation 0.93  
Year to date precipitation 16.33  
Snow  
Snow 0.00 in 0.10 in 1.00 in (1950)
Month to date snowfall 1.0  
Since 1 July snowfall 1.2  
Since 1 September snowfall 1.2  
Snow Depth -    
Sea Level Pressure  
Sea Level Pressure 30.03 in    
Wind  
Wind Speed 8 mph (SSW)    
Max Wind Speed 21 mph    
Max Gust Speed 26 mph    
T = Trace of Precipitation, MM = Missing Value Source: NWS Daily Summary

Daily Weather History Graph

Daily Weather History Graph

Search for Another Location

Airport or City:

Trip Planner

Search our weather history database for the weather conditions in past years. The results will help you decide how hot, cold, wet, or windy it might be!

Date:

Astronomy

Oct. 22, 2011 Rise Set
Actual Time 8:10 AM CDT 6:44 PM CDT
Civil Twilight 7:39 AM CDT 7:15 PM CDT
Nautical Twilight 7:04 AM CDT 7:50 PM CDT
Astronomical Twilight 6:29 AM CDT 8:25 PM CDT
Moon 2:53 AM CDT (10/22) 4:17 PM CDT (10/22)
Length of Visible Light 11h 35m
Length of Day
10h 33m
Waning Crescent, 23% of the Moon is Illuminated
Oct 22
Waning Crescent
Oct 26
New
Nov 2
First Quarter
Nov 10
Full
Nov 18
Last Quarter

Hourly Weather History & Observations

Time (CDT) Temp. Windchill Dew Point Humidity Pressure Visibility Wind Dir Wind Speed Gust Speed Precip Events Conditions
12:15 AM 37.4 °F 33.8 °F 35.6 °F 93% 30.10 in - WSW 4.6 mph - N/A   Unknown
12:35 AM 37.4 °F 33.8 °F 37.4 °F 100% 30.10 in - WSW 4.6 mph - N/A   Unknown
12:55 AM 37.4 °F 34.9 °F 37.4 °F 100% 30.10 in - West 3.5 mph - N/A   Unknown
1:15 AM 39.2 °F - 37.4 °F 93% 30.09 in - Calm Calm - N/A   Unknown
1:35 AM 39.2 °F - 37.4 °F 93% 30.09 in - Calm Calm - N/A   Unknown
2:15 AM 37.4 °F 32.8 °F 37.4 °F 100% 30.09 in - SE 5.8 mph - N/A   Mostly Cloudy
2:35 AM 41.0 °F 39.0 °F 37.4 °F 87% 30.09 in - SSE 3.5 mph - N/A   Mostly Cloudy
2:55 AM 39.2 °F 37.0 °F 37.4 °F 93% 30.09 in - South 3.5 mph - N/A   Mostly Cloudy
3:15 AM 41.0 °F - 37.4 °F 87% 30.09 in - Calm Calm - N/A   Overcast
3:35 AM 39.2 °F 37.0 °F 37.4 °F 93% 30.09 in - SSE 3.5 mph - N/A   Mostly Cloudy
3:55 AM 37.4 °F - 37.4 °F 100% 30.07 in - Calm Calm - N/A   Mostly Cloudy
4:15 AM 37.4 °F 33.8 °F 37.4 °F 100% 30.07 in - SSE 4.6 mph - N/A   Unknown
4:35 AM 35.6 °F 30.7 °F 35.6 °F 100% 30.07 in - SSE 5.8 mph - N/A   Mostly Cloudy
4:55 AM 35.6 °F 31.7 °F 35.6 °F 100% 30.06 in - SSE 4.6 mph - N/A   Unknown
5:15 AM 35.6 °F 29.9 °F 35.6 °F 100% 30.06 in - SSE 6.9 mph - N/A   Unknown
5:35 AM 37.4 °F 33.8 °F 37.4 °F 100% 30.06 in - ESE 4.6 mph - N/A   Unknown
6:35 AM 32.0 °F 25.6 °F 32.0 °F 100% 30.05 in - SE 6.9 mph - N/A   Unknown
6:55 AM 32.0 °F 24.8 °F 32.0 °F 100% 30.05 in - SSE 8.1 mph - N/A   Unknown
7:15 AM 35.6 °F 29.2 °F 35.6 °F 100% 30.05 in - SSE 8.1 mph - N/A   Unknown
7:35 AM 35.6 °F 29.9 °F 35.6 °F 100% 30.04 in - South 6.9 mph - N/A   Unknown
7:55 AM 35.6 °F 31.7 °F 35.6 °F 100% 30.05 in - South 4.6 mph - N/A   Unknown
8:15 AM 35.6 °F 29.2 °F 35.6 °F 100% 30.04 in - South 8.1 mph - N/A   Mostly Cloudy
8:35 AM 37.4 °F 30.8 °F 37.4 °F 100% 30.03 in - South 9.2 mph - N/A   Unknown
8:55 AM 37.4 °F 30.8 °F 37.4 °F 100% 30.03 in - SSE 9.2 mph - N/A   Mostly Cloudy
9:15 AM 37.4 °F 31.4 °F 37.4 °F 100% 30.03 in - SSE 8.1 mph - N/A   Unknown
9:35 AM 39.2 °F 34.2 °F 39.2 °F 100% 30.02 in - SSE 6.9 mph - N/A   Unknown
9:55 AM 41.0 °F 36.4 °F 41.0 °F 100% 30.01 in - SSE 6.9 mph - N/A   Unknown
10:35 AM 44.6 °F 38.1 °F 44.6 °F 100% 30.01 in - South 13.8 mph - N/A   Unknown
10:55 AM 46.4 °F 41.1 °F 46.4 °F 100% 30.00 in - South 11.5 mph - N/A   Mostly Cloudy
11:15 AM 48.2 °F - 46.4 °F 93% 30.00 in - South 11.5 mph - N/A   Unknown
11:35 AM 50.0 °F - 46.4 °F 87% 29.99 in - South 11.5 mph - N/A   Unknown
11:55 AM 55.4 °F - 46.4 °F 72% 29.98 in - South 13.8 mph - N/A   Mostly Cloudy
12:15 PM 55.4 °F - 46.4 °F 72% 29.97 in - SSW 11.5 mph 19.6 mph N/A   Mostly Cloudy
12:35 PM 55.4 °F - 46.4 °F 72% 29.97 in - SSW 13.8 mph 20.7 mph N/A Rain Light Rain
12:55 PM 57.2 °F - 46.4 °F 67% 29.96 in - SSW 13.8 mph 18.4 mph N/A   Mostly Cloudy
1:15 PM 59.0 °F - 46.4 °F 63% 29.95 in - South 12.7 mph 18.4 mph N/A   Partly Cloudy
1:35 PM 59.0 °F - 46.4 °F 63% 29.94 in - SSW 10.4 mph - N/A   Partly Cloudy
1:55 PM 62.6 °F - 44.6 °F 52% 29.93 in - SW 16.1 mph - N/A   Clear
2:15 PM 64.4 °F - 44.6 °F 49% 29.92 in - SW 12.7 mph 24.2 mph N/A   Scattered Clouds
2:35 PM 62.6 °F - 44.6 °F 52% 29.91 in - SW 11.5 mph 19.6 mph N/A   Mostly Cloudy
2:55 PM 64.4 °F - 44.6 °F 49% 29.91 in - WSW 16.1 mph - N/A   Mostly Cloudy
3:15 PM 66.2 °F - 41.0 °F 40% - - West 11.5 mph - N/A   Clear
3:35 PM 66.2 °F - 41.0 °F 40% - - West 16.1 mph - N/A   Clear
3:55 PM 64.4 °F - 41.0 °F 42% - - West 15.0 mph 19.6 mph N/A   Partly Cloudy
4:15 PM 66.2 °F - 39.2 °F 37% - - West 16.1 mph 19.6 mph N/A   Mostly Cloudy
4:35 PM 66.2 °F - 37.4 °F 35% - - West 16.1 mph - N/A   Mostly Cloudy
4:55 PM 64.4 °F - 35.6 °F 34% - - West 20.7 mph 25.3 mph N/A   Scattered Clouds
5:15 PM 62.6 °F - 35.6 °F 37% - - West 16.1 mph 23.0 mph N/A   Partly Cloudy
5:35 PM 64.4 °F - 35.6 °F 34% - - West 15.0 mph - N/A   Partly Cloudy
5:55 PM 62.6 °F - 33.8 °F 34% - - West 18.4 mph 26.5 mph N/A   Clear
6:15 PM 60.8 °F - 35.6 °F 39% - - West 16.1 mph 19.6 mph N/A   Clear
6:35 PM 59.0 °F - 33.8 °F 39% - - West 13.8 mph - N/A   Clear
6:55 PM 55.4 °F - 33.8 °F 44% - - West 12.7 mph - N/A   Clear
7:15 PM 55.4 °F - 33.8 °F 44% - - West 11.5 mph - N/A   Clear
7:35 PM 55.4 °F - 33.8 °F 44% - - West 12.7 mph - N/A   Clear
7:55 PM 53.6 °F - 35.6 °F 51% - - West 13.8 mph - N/A   Clear
8:15 PM 50.0 °F - 35.6 °F 58% - - West 12.7 mph - N/A   Clear
8:35 PM 51.8 °F - 35.6 °F 54% - - West 10.4 mph - N/A   Clear
8:55 PM 53.6 °F - 35.6 °F 51% - - West 12.7 mph - N/A   Clear
9:15 PM 53.6 °F - 33.8 °F 47% - - West 13.8 mph - N/A   Clear
9:35 PM 51.8 °F - 33.8 °F 50% - - West 11.5 mph - N/A   Clear
9:55 PM 50.0 °F - 33.8 °F 54% - - West 10.4 mph - N/A   Clear
10:15 PM 51.8 °F - 32.0 °F 47% - - West 11.5 mph - N/A   Clear
10:35 PM 50.0 °F - 32.0 °F 50% - - West 12.7 mph - N/A   Clear
11:15 PM 48.2 °F - 32.0 °F 54% - - West 9.2 mph - N/A   Clear
11:35 PM 50.0 °F - 32.0 °F 50% - - West 10.4 mph - N/A   Clear
11:55 PM 50.0 °F - 32.0 °F 50% - - West 11.5 mph - N/A   Clear